Voltar ao catálogo

STARLINK-6223

AtivoComunicaçõesVLEO
NORAD 57057·PAYLOAD·🇺🇸 United States

Lançado Jun 22, 2023 de Vandenberg Space Force Base

Loading…

Próximas Passagens (próximas 24 horas)

TLE

AtualizadoSource: CelesTrak SupGP

Época: Sep 15, 2026, 01:34 UTC

1 57057C 23088K   26258.06576389  .00061315  00000+0  22209-2 0  2582
2 57057  43.0000 120.9176 0001266 261.9160 242.7921 15.27546360    16

Acompanhe STARLINK-6223 em tempo real com AllMySat

Download on the App Store